カタリナ彗星

P/1999 V1 ( Catalina )

English version
Home page
Updated on June 11, 2000

---------------------------------------------------------------------

・ プロフィール

発見日 1999年11月5日
発見光度 17.6等
発見者 C. W. Hergenrother (Catalina Sky Survey)

・ 軌道要素

   The following improved orbital elements by Kenji Muraoka, are
  from 97 observations 1999 Nov. 5 to 2000 Apr. 24, perturbations
  by 9 Planets, Moon and 5 minor planets were taken into account.
   The mean residual is +/- 0.74 arc seconds.

      Epoch  =  1999 Oct. 29.0  TT       JDT = 2451480.5
          T  =  1999 Oct. 25.06339       +/- 0.01375 (m.e.) TT
       Peri. =  186.69553                +/- 0.00439
       Node  =  294.31128                +/- 0.00569   (2000.0)
       Incl. =   15.58696                +/- 0.00176
          q  =    2.9442938              +/- 0.0002282 AU
          e  =    0.5504887              +/- 0.0000253
          a  =    6.5499886              +/- 0.0003492 AU
          n  =    0.05879539             +/- 0.00000470
          P  =   16.763                  +/- 0.0013405  years
                                        (+/- 0.49 day)

・ 星図

・ 光度変化

        m1 = 11.0 + 5 logΔ + 10.0 log r

---------------------------------------------------------------------

軌道要素は村岡健治氏の計算によるものです。
星図は StellaNavigator Ver.2.0 for Windows (アストロアーツ 編著 / アスキー出版局刊) で作成したものです。
光度グラフはComet for Windowsで作成したものです。

---------------------------------------------------------------------

Copyright(C) Seiichi Yoshida (comet@aerith.net). All rights reserved.